[[{"header":{"parameterUnit":"m.s-1","parameterCategory":1,"la1":30.2991,"la2":30.254,"lo1":-89.0895,"lo2":-89.0444,"dy":0.0017,"dx":0.0017,"nx":28,"ny":28,"refTime":"2023-06-21T21:00:00:Z","depth":0,"parameterNumber":2,"parameterNumberName":"U-component_of_WINDS"},"data":[0,0,0,0,0,0,0,0,0,0,0,0,0,0,0,0,0,0,0,0,0,0,0,0,0,0,0,0,0,0,0,0,0,0,0,0,0,0,0,0,0,0,0,0,0,0,0,0,0,0,0,0,0,0,0,0,0,0,0.5791,0.5791,0,0.5825,0.5826,0.5826,0.5824,0.5823,0.5823,0.5822,0.5859,0.5861,0.5862,0,0,0,0,0,0,0,0,0,0,0,0,0,0.5724,0.5725,0.5791,0.5791,0.5792,0.5825,0.5826,0.5826,0.5824,0.5823,0.5822,0.5822,0.5859,0.5861,0.5862,0,0,0,0,0,0,0,0,0,0,0,0,0,0.5755,0.5726,0.5791,0.5794,0.5795,0.5825,0.5826,0.5826,0.5824,0.5823,0.5822,0.5821,0.5858,0.586,0.5863,0.5892,0,0,0.5869,0.587,0,0,0,0,0,0,0,0,0.5754,0.5758,0.5793,0.5794,0.5795,0.5819,0.5816,0.5848,0.5824,0.5813,0.5822,0.5821,0.5847,0.585,0.5858,0.5894,0.5895,0.587,0.5871,0.5872,0.5873,0,0,0,0,0,0,0,0.5751,0.5756,0.5804,0.5794,0.5795,0.5795,0.5798,0.5822,0.5834,0.5814,0.5814,0.5818,0.5847,0.5856,0.5859,0.5896,0.587,0.5872,0.5873,0.5874,0.5956,0.5957,0,0,0,0,0,0,0.5748,0.5755,0.5803,0.5805,0.5772,0.5797,0.5801,0.5812,0.5834,0.5836,0.5818,0.5817,0.5853,0.5856,0.586,0.5895,0.5872,0.5874,0.5875,0.5955,0.5956,0.5957,0,0,0,0,0,0,0.5747,0.5753,0.5802,0.578,0.5786,0.5798,0.5812,0.5813,0.5822,0.5837,0.5839,0.5825,0.5852,0.5857,0.5884,0.5897,0.5875,0.5877,0.5954,0.5956,0.5957,0.5966,0,0,0,0,0,0,0.5745,0.5752,0.5763,0.578,0.5787,0.5824,0.5812,0.5815,0.5826,0.5825,0.5844,0.5846,0.5852,0.588,0.5886,0.5899,0.5879,0.5953,0.5955,0.5956,0.5965,0.5968,0.597,0,0,0,0,0,0.5743,0.5765,0.5764,0.577,0.5801,0.5825,0.5829,0.5835,0.5827,0.5838,0.5847,0.5846,0.5894,0.5883,0.5889,0.5904,0.5952,0.5954,0.5956,0.5964,0.5967,0.597,0,0,0,0,0,0,0.575,0.5767,0.5766,0.5795,0.5808,0.5825,0.5839,0.5838,0.5855,0.5854,0.586,0.5864,0.5891,0.59,0.5887,0.5933,0.5922,0.5926,0.5926,0.5929,0.5932,0.5929,0.5881,0,0,0,0,0,0.5755,0.5772,0.5787,0.581,0.5817,0.5827,0.5838,0.584,0.5855,0.5861,0.5872,0.5887,0.5906,0.5918,0.5936,0.5966,0.597,0.5979,0.5981,0.5983,0.5986,0.6002,0.6006,0.5964,0.5964,0.5964,0,0,0.5765,0.5777,0.5788,0.5812,0.5823,0.5841,0.5832,0.5852,0.5865,0.5864,0.589,0.5898,0.5916,0.5944,0.5957,0.5952,0.5999,0.5986,0.5987,0.5989,0.6005,0.6009,0.6013,0.5965,0.5965,0.5964,0,0,0.5794,0.5804,0.5825,0.5836,0.5852,0.5858,0.5863,0.5879,0.5885,0.591,0.5909,0.5926,0.5958,0.597,0.598,0.6012,0.6011,0.6017,0.6032,0.6047,0.605,0.6054,0.6065,0.6069,0.602,0.602,0.602,0,0.5805,0.5832,0.5836,0.5856,0.5866,0.5865,0.5886,0.5896,0.5918,0.5926,0.592,0.5959,0.5971,0.6001,0.6009,0.6017,0.6023,0.6016,0.605,0.6053,0.6056,0.6066,0.6071,0.6021,0.6021,0.6021,0.6021,0,0.5845,0.5863,0.5878,0.5898,0.591,0.5931,0.5938,0.595,0.5951,0.5958,0.5984,0.5997,0.6017,0.6025,0.6027,0.6056,0.6052,0.6048,0.6038,0.606,0.607,0.6075,0.6022,0.6022,0.6021,0.6021,0,0,0.588,0.5901,0.5906,0.5915,0.5932,0.5947,0.5967,0.5986,0.5996,0.601,0.6028,0.6054,0.605,0.6061,0.6065,0.6078,0.6102,0.6072,0.6073,0.6077,0.6135,0.6138,0.6143,0.6101,0.6102,0.6103,0.6133,0,0.591,0.5945,0.5949,0.598,0.5997,0.5996,0.6013,0.6026,0.6032,0.6048,0.6056,0.6074,0.6067,0.6074,0.6087,0.6096,0.6114,0.6094,0.6118,0.6119,0.6114,0.6148,0.6152,0.618,0.6137,0.6138,0.6138,0,0.595,0.5965,0.5998,0.6012,0.6019,0.6035,0.6052,0.6067,0.6081,0.6085,0.6097,0.6098,0.6119,0.6108,0.6137,0.6123,0.6133,0.6139,0.614,0.6143,0.613,0.6152,0.6189,0.6193,0.6145,0.6144,0.6144,0,0.5973,0.6001,0.6024,0.6031,0.6048,0.6059,0.6067,0.608,0.6091,0.6106,0.6113,0.6131,0.6141,0.6155,0.6161,0.6152,0.6189,0.6179,0.6194,0.6193,0.6202,0.6202,0.6242,0.6208,0.6208,0.6208,0.6208,0,0.6006,0.6026,0.6034,0.6048,0.607,0.6074,0.6096,0.6104,0.6115,0.6131,0.6131,0.6146,0.6153,0.6169,0.6174,0.6197,0.6202,0.6206,0.6207,0.6206,0.6205,0.6213,0.6211,0.6209,0.6209,0.6208,0.6208,0,0.6035,0.6041,0.6066,0.6079,0.6083,0.6099,0.6111,0.6125,0.6131,0.6151,0.6156,0.6165,0.6184,0.6191,0.6215,0.6218,0.6245,0.6244,0.624,0.624,0.6255,0.6253,0.6301,0.6308,0.6269,0.627,0.627,0,0.6057,0.6072,0.6087,0.6097,0.6104,0.6121,0.6131,0.6136,0.6147,0.6163,0.6175,0.6194,0.6209,0.6239,0.6249,0.6266,0.6267,0.6282,0.6269,0.6268,0.6267,0.6266,0.6268,0.6285,0.6285,0.6285,0.6286,0,0.6094,0.6096,0.6111,0.6126,0.6139,0.6152,0.6164,0.6172,0.6179,0.6191,0.621,0.6221,0.6244,0.6263,0.6281,0.6289,0.6289,0.6289,0.6294,0.6293,0.629,0.6292,0.6246,0.6288,0.6288,0.6288,0.6288,0.6288,0.612,0.6133,0.6145,0.6162,0.6171,0.6182,0.6196,0.6203,0.6218,0.6237,0.6238,0.6258,0.6271,0.6295,0.6304,0.6321,0.6317,0.6323,0.6325,0.6326,0.6327,0.6287,0.6324,0.6324,0.6324,0.6324,0.6324,0,0.6157,0.6164,0.6179,0.6196,0.6209,0.6206,0.6219,0.623,0.6248,0.626,0.6274,0.6295,0.6313,0.6323,0.6341,0.6352,0.6352,0.6356,0.6356,0.6358,0.633,0.6324,0.6356,0.6356,0.6356,0.6356,0.6356,0.6356,0.6178,0.62,0.6203,0.623,0.6237,0.6256,0.6264,0.6274,0.6283,0.6307,0.6321,0.6327,0.6338,0.6357,0.6373,0.6375,0.6382,0.6387,0.6389,0.6363,0.636,0.6357,0.6351,0.6388,0.6388,0.6416,0.6416,0.6416]},{"header":{"parameterUnit":"m.s-1","parameterCategory":1,"la1":30.2991,"la2":30.254,"lo1":-89.0895,"lo2":-89.0444,"dy":0.0017,"dx":0.0017,"nx":28,"ny":28,"refTime":"2023-06-21T21:00:00:Z","depth":0,"parameterNumber":3,"parameterNumberName":"V-component_of_WINDS"},"data":[0,0,0,0,0,0,0,0,0,0,0,0,0,0,0,0,0,0,0,0,0,0,0,0,0,0,0,0,0,0,0,0,0,0,0,0,0,0,0,0,0,0,0,0,0,0,0,0,0,0,0,0,0,0,0,0,0,0,0.5674,0.5674,0,0.5682,0.5682,0.5682,0.5667,0.5667,0.5666,0.5666,0.5676,0.5677,0.5678,0,0,0,0,0,0,0,0,0,0,0,0,0,0.5647,0.5648,0.5674,0.5674,0.5674,0.5682,0.5682,0.5683,0.5667,0.5667,0.5666,0.5666,0.5676,0.5677,0.5678,0,0,0,0,0,0,0,0,0,0,0,0,0,0.5658,0.5648,0.5674,0.5667,0.5667,0.5682,0.5682,0.5683,0.5667,0.5667,0.5666,0.5665,0.5676,0.5677,0.5678,0.57,0,0,0.5681,0.5682,0,0,0,0,0,0,0,0,0.5657,0.5659,0.5668,0.5668,0.5667,0.5673,0.5677,0.5689,0.5668,0.5667,0.5666,0.5665,0.5676,0.5677,0.568,0.5701,0.5701,0.5681,0.5682,0.5683,0.5683,0,0,0,0,0,0,0,0.5656,0.5658,0.5677,0.5668,0.5668,0.5665,0.5666,0.5679,0.5676,0.5667,0.5666,0.5667,0.5675,0.5679,0.568,0.5701,0.5681,0.5682,0.5683,0.5684,0.5743,0.5744,0,0,0,0,0,0,0.5656,0.5658,0.5677,0.5677,0.566,0.5666,0.5667,0.5672,0.5676,0.5675,0.5668,0.5667,0.5678,0.5679,0.5681,0.5709,0.5683,0.5684,0.5684,0.5742,0.5744,0.5744,0,0,0,0,0,0,0.5656,0.5658,0.5677,0.5667,0.5669,0.5667,0.5673,0.5673,0.5676,0.5676,0.5676,0.5672,0.5677,0.5679,0.5696,0.5709,0.5684,0.5685,0.5741,0.5743,0.5744,0.5764,0,0,0,0,0,0,0.5655,0.5658,0.5666,0.5668,0.567,0.5691,0.5674,0.5673,0.5678,0.5676,0.568,0.568,0.5677,0.5694,0.5697,0.571,0.5686,0.574,0.5742,0.5744,0.5763,0.5766,0.5769,0,0,0,0,0,0.5654,0.5671,0.5666,0.5669,0.568,0.5692,0.5693,0.5688,0.5679,0.5688,0.5688,0.568,0.5707,0.5696,0.5699,0.5713,0.5739,0.5741,0.5743,0.5761,0.5766,0.5769,0,0,0,0,0,0,0.5671,0.5671,0.5666,0.5683,0.5688,0.5689,0.5699,0.5693,0.57,0.5699,0.5693,0.5694,0.5713,0.5714,0.5702,0.5736,0.5722,0.5724,0.5734,0.5738,0.5742,0.5742,0.5687,0,0,0,0,0,0.5676,0.5685,0.5685,0.5701,0.5704,0.5701,0.5706,0.5702,0.5707,0.5709,0.571,0.5715,0.5725,0.5732,0.5741,0.5763,0.5764,0.5774,0.5777,0.578,0.5783,0.5797,0.5801,0.5751,0.5751,0.5751,0,0,0.5688,0.569,0.5696,0.5705,0.5708,0.5718,0.5703,0.5714,0.5723,0.571,0.5727,0.5728,0.5734,0.5754,0.5763,0.5756,0.5797,0.5782,0.5785,0.5786,0.5799,0.5804,0.5808,0.5753,0.5752,0.5752,0,0,0.5716,0.5717,0.5731,0.5735,0.5739,0.5738,0.5741,0.5744,0.5744,0.576,0.5752,0.5762,0.5779,0.5784,0.5789,0.582,0.5814,0.5823,0.5841,0.5855,0.5859,0.5863,0.5876,0.588,0.5826,0.5826,0.5826,0,0.5731,0.5745,0.574,0.5752,0.5757,0.5747,0.5762,0.5766,0.5773,0.5777,0.5769,0.5791,0.5794,0.5816,0.5824,0.5827,0.5833,0.5823,0.5859,0.5862,0.5866,0.5878,0.5883,0.5827,0.5827,0.5827,0.5826,0,0.5764,0.5775,0.5786,0.5793,0.5799,0.5813,0.5811,0.5818,0.5814,0.5814,0.5832,0.5835,0.5845,0.585,0.5846,0.5872,0.5868,0.5859,0.5845,0.5872,0.5883,0.5888,0.5829,0.5828,0.5828,0.5827,0,0,0.5802,0.5807,0.5811,0.5815,0.582,0.5829,0.5843,0.5853,0.586,0.5866,0.5879,0.5894,0.5886,0.5892,0.5888,0.59,0.5928,0.5891,0.5891,0.5899,0.5959,0.5967,0.5972,0.5923,0.5924,0.5925,0.5959,0,0.5831,0.5854,0.585,0.5874,0.5885,0.5876,0.5888,0.5893,0.5894,0.5904,0.5905,0.5917,0.5905,0.5909,0.592,0.5922,0.594,0.5919,0.5937,0.5937,0.5937,0.5978,0.5985,0.6018,0.5964,0.5964,0.5965,0,0.5867,0.5874,0.5899,0.5904,0.5908,0.592,0.5929,0.5939,0.5945,0.5945,0.5952,0.5947,0.5963,0.5948,0.5971,0.5957,0.5964,0.5966,0.5968,0.597,0.5953,0.5983,0.6028,0.6033,0.5972,0.5971,0.5971,0,0.5894,0.591,0.5928,0.5931,0.5937,0.5945,0.5948,0.5954,0.5961,0.5969,0.5974,0.5985,0.5991,0.6,0.5999,0.5988,0.6023,0.6008,0.6025,0.6026,0.6034,0.6033,0.6082,0.6036,0.6036,0.6036,0.6036,0,0.5927,0.5943,0.594,0.5951,0.5969,0.5965,0.5983,0.5985,0.5991,0.6003,0.5996,0.6007,0.6004,0.6017,0.6016,0.6037,0.6039,0.6041,0.6041,0.6042,0.6042,0.6047,0.6046,0.6037,0.6037,0.6037,0.6036,0,0.5961,0.5959,0.5978,0.5982,0.5983,0.5997,0.6001,0.6012,0.6012,0.6028,0.6032,0.6033,0.6047,0.6047,0.6063,0.6062,0.6088,0.6085,0.6086,0.6086,0.6104,0.6103,0.6158,0.6166,0.6114,0.6114,0.6115,0,0.5982,0.5994,0.6,0.6008,0.6011,0.6023,0.603,0.6027,0.6035,0.6044,0.6055,0.6068,0.6079,0.6103,0.6106,0.6119,0.6117,0.6135,0.6118,0.612,0.6119,0.6119,0.6121,0.6139,0.6139,0.614,0.614,0,0.6022,0.6021,0.6031,0.6041,0.605,0.6058,0.6066,0.6073,0.6071,0.608,0.6095,0.6103,0.612,0.6134,0.6147,0.6152,0.6147,0.6145,0.615,0.6153,0.6154,0.6155,0.6096,0.6144,0.6144,0.6144,0.6143,0.6143,0.6051,0.6062,0.6068,0.608,0.6086,0.6093,0.6105,0.6107,0.6118,0.6132,0.6129,0.6146,0.6154,0.6171,0.6177,0.6191,0.6185,0.6191,0.6193,0.6196,0.6198,0.615,0.6193,0.6193,0.6193,0.6193,0.6193,0,0.6091,0.6095,0.6106,0.6117,0.6127,0.6121,0.6129,0.6139,0.6153,0.6161,0.6172,0.619,0.6204,0.6209,0.6223,0.6234,0.6232,0.6238,0.6238,0.624,0.6202,0.6197,0.6239,0.6239,0.6239,0.6239,0.6239,0.6239,0.6113,0.6132,0.6132,0.6155,0.6159,0.6175,0.6181,0.6188,0.6195,0.6215,0.6227,0.6229,0.6237,0.6252,0.6266,0.6267,0.6273,0.628,0.6281,0.6246,0.6242,0.6237,0.6233,0.6281,0.6282,0.6317,0.6317,0.6318]}]]